BKN5 TJSJ-KJFK

Flight info

Callsign BKN5
Flight time N/A
Altitude 36000
Route ACONY3 PALDE DCT DONQU/N0465F350 DCT LUCTI/M079F360 L454 OKONU/N0455F370 DCT YAALE Y495 MOUGH/N0458F380 Y495 CAMRN
Aircraft B752/M-SDE3FGHIM3RWXY/LB1

Departure

Time 2026-04-27 14:53
Airport Luis Munoz Marin International Airport (TJSJ)

Arrival

Time N/A
Airport John F. Kennedy International Airport (KJFK)
Time Latitude Longitude Altitude Speed Heading
2026-04-27 14:28 18.44027 -66.00528 25 ft 0 kts 156°
2026-04-27 14:44 18.44030 -66.00530 25 ft 2 kts 156°
2026-04-27 14:45 18.44044 -66.00536 24 ft 2 kts 156°
2026-04-27 14:45 18.44057 -66.00542 24 ft 2 kts 156°
2026-04-27 14:45 18.44071 -66.00549 23 ft 2 kts 156°
2026-04-27 14:45 18.44085 -66.00555 23 ft 2 kts 156°
2026-04-27 14:46 18.44099 -66.00561 22 ft 2 kts 156°
2026-04-27 14:46 18.44102 -66.00562 22 ft 0 kts 156°
2026-04-27 14:49 18.44101 -66.00562 22 ft 0 kts 157°
2026-04-27 14:50 18.44088 -66.00558 23 ft 5 kts 171°
2026-04-27 14:50 18.44061 -66.00597 23 ft 8 kts 278°
2026-04-27 14:50 18.44071 -66.00680 21 ft 14 kts 267°
2026-04-27 14:50 18.44031 -66.00805 20 ft 21 kts 247°
2026-04-27 14:51 18.43974 -66.00951 20 ft 20 kts 248°
2026-04-27 14:51 18.43916 -66.01089 17 ft 20 kts 245°
2026-04-27 14:51 18.43861 -66.01221 17 ft 19 kts 248°
2026-04-27 14:51 18.43828 -66.01305 17 ft 18 kts 248°
2026-04-27 14:52 18.43804 -66.01429 17 ft 9 kts 308°
2026-04-27 14:52 18.43857 -66.01457 17 ft 7 kts 348°
2026-04-27 14:52 18.43895 -66.01440 17 ft 5 kts 60°
2026-04-27 14:52 18.43936 -66.01337 17 ft 38 kts 68°
2026-04-27 14:53 18.44131 -66.00851 20 ft 105 kts 67°
2026-04-27 14:53 18.44499 -65.99945 32 ft 163 kts 67°
2026-04-27 14:53 18.44969 -65.98749 433 ft 185 kts 67°
2026-04-27 14:53 18.45805 -65.97729 1012 ft 205 kts 30°
2026-04-27 14:54 18.47322 -65.97339 1199 ft 243 kts 355°
2026-04-27 14:54 18.48959 -65.97915 1760 ft 262 kts 327°
2026-04-27 14:54 18.50247 -65.99304 2443 ft 274 kts 305°
2026-04-27 14:54 18.51377 -66.00905 3384 ft 275 kts 309°
2026-04-27 14:55 18.52627 -66.02463 4272 ft 278 kts 311°
2026-04-27 14:55 18.53903 -66.03984 5143 ft 282 kts 311°
2026-04-27 14:55 18.55216 -66.05507 5991 ft 285 kts 311°
2026-04-27 14:55 18.56581 -66.07066 6794 ft 291 kts 311°
2026-04-27 14:56 18.57946 -66.08611 7606 ft 294 kts 311°
2026-04-27 14:56 18.59340 -66.10181 8446 ft 296 kts 312°
2026-04-27 14:56 18.60750 -66.11766 9202 ft 302 kts 311°
2026-04-27 14:56 18.62210 -66.13405 9976 ft 306 kts 311°
2026-04-27 14:57 18.63672 -66.15045 10651 ft 314 kts 311°
2026-04-27 14:57 18.65220 -66.16785 10972 ft 334 kts 311°
2026-04-27 14:57 18.66849 -66.18613 11297 ft 353 kts 311°
2026-04-27 14:57 18.68557 -66.20529 11561 ft 371 kts 311°
2026-04-27 14:58 18.70380 -66.22574 11940 ft 385 kts 311°
2026-04-27 14:58 18.72225 -66.24644 12597 ft 388 kts 310°
2026-04-27 14:58 18.74068 -66.26712 13249 ft 391 kts 311°
2026-04-27 14:58 18.75934 -66.28809 13925 ft 394 kts 311°
2026-04-27 14:59 18.77816 -66.30924 14486 ft 398 kts 310°
2026-04-27 14:59 18.79693 -66.33032 15173 ft 398 kts 310°
2026-04-27 14:59 18.81593 -66.35170 15738 ft 402 kts 310°
2026-04-27 14:59 18.83518 -66.37335 16301 ft 405 kts 310°
2026-04-27 15:00 18.85447 -66.39507 16888 ft 406 kts 310°
2026-04-27 15:00 18.87393 -66.41697 17396 ft 410 kts 310°
2026-04-27 15:00 18.89353 -66.43906 17953 ft 412 kts 310°
2026-04-27 15:00 18.91305 -66.46103 18486 ft 415 kts 309°
2026-04-27 15:01 18.93300 -66.48316 18966 ft 419 kts 312°
2026-04-27 15:01 18.95438 -66.50468 19489 ft 421 kts 313°
2026-04-27 15:01 18.97544 -66.52598 19988 ft 424 kts 312°
2026-04-27 15:01 18.99674 -66.54752 20521 ft 425 kts 312°
2026-04-27 15:02 19.01821 -66.56929 20944 ft 429 kts 312°
2026-04-27 15:02 19.03966 -66.59103 21426 ft 431 kts 312°
2026-04-27 15:02 19.06145 -66.61315 21891 ft 433 kts 312°
2026-04-27 15:02 19.08318 -66.63486 22353 ft 436 kts 314°
2026-04-27 15:03 19.10649 -66.65579 22852 ft 437 kts 315°
2026-04-27 15:03 19.12972 -66.67673 23253 ft 440 kts 315°
2026-04-27 15:03 19.15291 -66.69766 23639 ft 443 kts 315°
2026-04-27 15:03 19.17625 -66.71874 24174 ft 443 kts 315°
2026-04-27 15:04 19.19981 -66.74004 24565 ft 445 kts 314°
2026-04-27 15:04 19.22366 -66.76162 24878 ft 450 kts 314°
2026-04-27 15:04 19.24743 -66.78313 25369 ft 450 kts 314°
2026-04-27 15:04 19.27126 -66.80470 25760 ft 452 kts 314°
2026-04-27 15:05 19.29523 -66.82643 26107 ft 455 kts 314°
2026-04-27 15:05 19.31894 -66.84792 26522 ft 456 kts 314°
2026-04-27 15:05 19.34324 -66.86996 26851 ft 459 kts 314°
2026-04-27 15:05 19.36732 -66.89181 27202 ft 461 kts 314°
2026-04-27 15:06 19.39171 -66.91393 27593 ft 462 kts 314°
2026-04-27 15:06 19.41626 -66.93623 27940 ft 464 kts 314°
2026-04-27 15:06 19.44084 -66.95854 28269 ft 466 kts 314°
2026-04-27 15:06 19.46560 -66.98103 28588 ft 468 kts 314°
2026-04-27 15:07 19.48999 -67.00320 28965 ft 468 kts 314°
2026-04-27 15:07 19.51489 -67.02583 29473 ft 466 kts 313°
2026-04-27 15:07 19.53947 -67.04820 29885 ft 465 kts 313°
2026-04-27 15:07 19.56402 -67.07053 30278 ft 465 kts 313°
2026-04-27 15:08 19.58831 -67.09265 30820 ft 460 kts 313°
2026-04-27 15:08 19.61255 -67.11473 31157 ft 461 kts 313°
2026-04-27 15:08 19.63705 -67.13708 31584 ft 459 kts 313°
2026-04-27 15:08 19.66140 -67.15926 31982 ft 458 kts 312°
2026-04-27 15:09 19.68540 -67.18117 32307 ft 458 kts 312°
2026-04-27 15:09 19.70965 -67.20331 32685 ft 456 kts 312°
2026-04-27 15:09 19.73359 -67.22516 33076 ft 455 kts 311°
2026-04-27 15:09 19.75776 -67.24724 33460 ft 454 kts 311°
2026-04-27 15:10 19.78178 -67.26919 33825 ft 453 kts 311°
2026-04-27 15:10 19.80540 -67.29079 34183 ft 452 kts 311°
2026-04-27 15:10 19.82953 -67.31287 34398 ft 455 kts 311°
2026-04-27 15:10 19.85350 -67.33479 34824 ft 451 kts 311°
2026-04-27 15:11 19.87705 -67.35635 35035 ft 453 kts 311°
2026-04-27 15:11 19.90098 -67.37828 35277 ft 453 kts 311°
2026-04-27 15:11 19.92504 -67.40030 35571 ft 453 kts 311°
2026-04-27 15:11 19.94904 -67.42231 35829 ft 453 kts 311°
2026-04-27 15:12 19.97259 -67.44385 36046 ft 449 kts 311°
2026-04-27 15:12 19.99646 -67.46576 36029 ft 449 kts 311°
2026-04-27 15:12 20.04377 -67.50919 36028 ft 449 kts 311°
2026-04-27 15:13 20.09094 -67.55252 36038 ft 448 kts 311°
2026-04-27 15:13 20.13821 -67.59597 36033 ft 449 kts 310°
2026-04-27 15:14 20.18517 -67.63917 36012 ft 447 kts 311°
2026-04-27 15:14 20.23244 -67.68270 36033 ft 448 kts 310°
2026-04-27 15:15 20.27933 -67.72590 36042 ft 448 kts 310°
2026-04-27 15:15 20.32639 -67.76930 36030 ft 446 kts 310°
2026-04-27 15:16 20.37329 -67.81261 36042 ft 447 kts 310°
2026-04-27 15:16 20.42009 -67.85583 36035 ft 446 kts 310°
2026-04-27 15:17 20.46698 -67.89917 36037 ft 445 kts 310°
2026-04-27 15:17 20.51364 -67.94237 36044 ft 447 kts 310°
2026-04-27 15:18 20.56086 -67.98609 36035 ft 447 kts 310°
2026-04-27 15:18 20.60746 -68.02928 36027 ft 444 kts 310°
2026-04-27 15:19 20.65426 -68.07270 36023 ft 445 kts 310°
2026-04-27 15:19 20.70361 -68.11318 36033 ft 459 kts 322°
2026-04-27 15:20 20.73325 -68.12790 36046 ft 471 kts 331°
2026-04-27 15:20 20.76526 -68.13762 36045 ft 485 kts 339°
2026-04-27 15:20 20.83129 -68.15174 36031 ft 484 kts 339°
2026-04-27 15:21 20.89758 -68.16620 36031 ft 483 kts 339°
2026-04-27 15:21 20.96394 -68.18075 36032 ft 485 kts 339°
2026-04-27 15:22 21.02977 -68.19519 36038 ft 484 kts 339°
2026-04-27 15:22 21.09573 -68.20969 36030 ft 482 kts 339°
2026-04-27 15:23 21.16154 -68.22418 36026 ft 484 kts 339°
2026-04-27 15:23 21.22757 -68.23872 36022 ft 484 kts 339°
2026-04-27 15:24 21.29395 -68.25336 36031 ft 485 kts 339°
2026-04-27 15:24 21.35987 -68.26789 36030 ft 483 kts 339°
2026-04-27 15:25 21.42585 -68.28246 36038 ft 483 kts 339°
2026-04-27 15:25 21.49165 -68.29701 36035 ft 482 kts 339°
2026-04-27 15:26 21.55776 -68.31166 36019 ft 484 kts 339°
2026-04-27 15:26 21.62362 -68.32624 36037 ft 485 kts 339°
2026-04-27 15:27 21.68978 -68.34089 36029 ft 483 kts 339°
2026-04-27 15:27 21.75539 -68.35545 36026 ft 482 kts 339°
2026-04-27 15:28 21.82127 -68.37010 36022 ft 483 kts 339°
2026-04-27 15:28 21.88724 -68.38475 36003 ft 481 kts 339°
2026-04-27 15:29 21.95269 -68.39933 36015 ft 483 kts 339°
2026-04-27 15:29 22.01868 -68.41402 36011 ft 483 kts 339°
2026-04-27 15:30 22.08460 -68.42871 36000 ft 481 kts 339°
2026-04-27 15:30 22.14990 -68.44327 35984 ft 478 kts 339°
2026-04-27 15:31 22.21569 -68.45800 36004 ft 482 kts 339°
2026-04-27 15:31 22.28109 -68.47260 36004 ft 480 kts 339°
2026-04-27 15:32 22.34689 -68.48734 35999 ft 480 kts 339°
2026-04-27 15:32 22.41240 -68.50203 36013 ft 483 kts 339°
2026-04-27 15:33 22.47807 -68.51672 35996 ft 480 kts 339°
2026-04-27 15:33 22.54364 -68.53146 36001 ft 481 kts 339°
2026-04-27 15:34 22.60877 -68.54608 35988 ft 480 kts 339°
2026-04-27 15:34 22.67475 -68.56093 36001 ft 481 kts 339°
2026-04-27 15:35 22.74037 -68.57569 35996 ft 480 kts 339°
2026-04-27 15:35 22.80571 -68.59041 35997 ft 479 kts 339°
2026-04-27 15:36 22.87145 -68.60525 36012 ft 482 kts 339°
2026-04-27 15:36 22.93682 -68.62000 35996 ft 478 kts 339°
2026-04-27 15:37 23.00252 -68.63487 36002 ft 482 kts 339°
2026-04-27 15:37 23.06793 -68.64965 36010 ft 480 kts 339°
2026-04-27 15:38 23.13338 -68.66447 36019 ft 478 kts 339°
2026-04-27 15:38 23.19876 -68.67928 36013 ft 479 kts 339°
2026-04-27 15:39 23.26399 -68.69409 36003 ft 478 kts 339°
2026-04-27 15:39 23.32957 -68.70900 36011 ft 482 kts 339°
2026-04-27 15:40 23.39509 -68.72388 36010 ft 479 kts 339°
2026-04-27 15:40 23.46017 -68.73869 36015 ft 478 kts 339°
2026-04-27 15:41 23.52532 -68.75353 36010 ft 478 kts 339°
2026-04-27 15:41 23.59106 -68.76854 36018 ft 481 kts 339°
2026-04-27 15:42 23.65611 -68.78336 36011 ft 478 kts 339°
2026-04-27 15:42 23.72154 -68.79832 36007 ft 476 kts 339°
2026-04-27 15:43 23.78665 -68.81323 36010 ft 478 kts 339°
2026-04-27 15:43 23.85168 -68.82812 36020 ft 478 kts 339°
2026-04-27 15:44 23.91747 -68.84321 36009 ft 480 kts 339°
2026-04-27 15:44 23.98245 -68.85809 36017 ft 476 kts 339°
2026-04-27 15:45 24.04757 -68.87306 36024 ft 479 kts 339°
2026-04-27 15:45 24.11262 -68.88802 36024 ft 479 kts 339°
2026-04-27 15:46 24.17810 -68.90308 36017 ft 478 kts 339°
2026-04-27 15:46 24.24299 -68.91805 36021 ft 479 kts 339°
2026-04-27 15:47 24.30832 -68.93310 35984 ft 479 kts 339°
2026-04-27 15:47 24.37331 -68.94812 36007 ft 477 kts 339°
2026-04-27 15:48 24.43881 -68.96326 36009 ft 479 kts 340°
2026-04-27 15:49 24.53680 -68.98593 35998 ft 478 kts 339°
2026-04-27 15:49 24.60181 -69.00100 36030 ft 479 kts 339°
2026-04-27 15:50 24.66677 -69.01607 36011 ft 477 kts 340°
2026-04-27 15:50 24.73153 -69.03110 36004 ft 476 kts 340°
2026-04-27 15:51 24.79689 -69.04631 35994 ft 479 kts 340°
2026-04-27 15:51 24.86202 -69.06145 36013 ft 477 kts 340°
2026-04-27 15:52 24.92653 -69.07650 36038 ft 478 kts 340°
2026-04-27 15:52 24.99228 -69.09183 36002 ft 478 kts 340°
2026-04-27 15:53 25.05779 -69.10557 36026 ft 481 kts 341°
2026-04-27 15:53 25.12376 -69.11915 36008 ft 480 kts 342°
2026-04-27 15:54 25.18911 -69.13262 36018 ft 480 kts 342°
2026-04-27 15:54 25.25497 -69.14623 35996 ft 480 kts 342°
2026-04-27 15:55 25.32066 -69.15981 36016 ft 480 kts 342°
2026-04-27 15:55 25.38614 -69.17337 36007 ft 482 kts 342°
2026-04-27 15:56 25.45228 -69.18707 36024 ft 480 kts 342°
2026-04-27 15:56 25.51781 -69.20068 36005 ft 480 kts 342°
2026-04-27 15:57 25.58351 -69.21433 36031 ft 481 kts 342°
2026-04-27 15:57 25.64931 -69.22800 36067 ft 481 kts 342°
2026-04-27 15:58 25.71484 -69.24163 36027 ft 480 kts 342°
2026-04-27 15:58 25.78056 -69.25534 36029 ft 482 kts 342°
2026-04-27 15:59 25.84653 -69.26910 36046 ft 480 kts 342°
2026-04-27 15:59 25.91195 -69.28278 36016 ft 480 kts 342°
2026-04-27 16:00 25.97779 -69.29655 36029 ft 482 kts 342°
2026-04-27 16:00 26.04370 -69.31033 36027 ft 480 kts 342°
2026-04-27 16:01 26.10920 -69.32407 36033 ft 481 kts 342°
2026-04-27 16:01 26.17504 -69.33787 36481 ft 481 kts 342°
2026-04-27 16:01 26.20828 -69.34486 36662 ft 482 kts 342°
2026-04-27 16:02 26.24101 -69.35174 36831 ft 483 kts 342°
2026-04-27 16:02 26.27384 -69.35864 37048 ft 480 kts 342°
2026-04-27 16:02 26.30679 -69.36557 37022 ft 481 kts 342°
2026-04-27 16:03 26.37290 -69.37949 37030 ft 480 kts 342°
2026-04-27 16:03 26.43834 -69.39329 37010 ft 479 kts 342°
2026-04-27 16:04 26.50423 -69.40720 37016 ft 481 kts 342°
2026-04-27 16:04 26.56988 -69.42107 37031 ft 480 kts 342°
2026-04-27 16:05 26.63527 -69.43491 37023 ft 479 kts 342°
2026-04-27 16:05 26.70073 -69.44877 37030 ft 479 kts 342°
2026-04-27 16:06 26.76645 -69.46271 37036 ft 480 kts 342°
2026-04-27 16:06 26.83216 -69.47665 37022 ft 480 kts 342°
2026-04-27 16:07 26.89756 -69.49056 37038 ft 480 kts 342°